COSMOS 1844 (17973 NORAD) Tracking and Keplerian Element Data

This shows tracking and keplerian element data for the satellite.

Feedback or suggestion? Click here.




ElementValue
Catalog17973
NameCOSMOS 1844
Epoch Orbit89255
Epoch Day13.05334249
Epoch Year2024
RAAN253.052
Inclination70.8981
Eccentricity0.0029281
Argument of Perigee125.9124
Mean Anonmoly234.4722
Mean Motion14.14281449
Decay Rate3.52E-06
L11 17973U 87041A 24013.05334249 .00000352 00000+0 20851-3 0 9995
L22 17973 70.8981 253.0520 0029281 125.9124 234.4722 14.14281449892556



Live tracking and technical data element details for COSMOS 1844 (NORAD 17973). COSMOS 1844 can be tracked NOW for your location showing map with azimuth and elevation plus other details from your city location.







IsCatalogInMostPopularTable: catalog: 17973, numindb: 399
Update: records affected: 1



GetName: 17973 COSMOS 1844

Hit Count: updated at: Fri, 19 Apr 2024 12:44:31 GMT